EW3714 Weather Reports


Display with metric or nautical units.
time (UTC)temp
F
wind
direction
speed
MPH
gust
MPH
rain 1hr
in
rain 24hr
in
rain mn
in
humidity
%
barometer
mb
20260903040836 85 281 0.0 0.0 0.00 0.00 0.00 68 1014.2
20260903040335 85 15 0.0 1.0 0.00 0.00 0.00 67 1014.0
20260903035832 85 322 0.0 0.0 0.00 0.00 0.00 66 1014.0
20260903035326 85 347 0.0 1.0 0.00 0.00 0.00 66 1014.0
20260903034822 86 62 0.0 2.0 0.00 0.00 0.00 66 1014.1
20260903034316 86 246 0.0 1.0 0.00 0.00 0.00 65 1014.0
20260903033812 86 345 0.0 1.0 0.00 0.00 0.00 64 1013.9
20260903033307 86 44 0.0 1.0 0.00 0.00 0.00 65 1014.1
20260903032807 87 38 0.0 2.0 0.00 0.00 0.00 63 1014.1
20260903032305 87 173 0.0 1.0 0.00 0.00 0.00 61 1014.0
20260903031758 88 309 0.0 1.0 0.00 0.00 0.00 59 1013.9
20260903031257 89 29 0.0 0.0 0.00 0.00 0.00 59 1013.7
20260903030753 89 217 0.0 0.0 0.00 0.00 0.00 57 1013.5
20260903030249 89 69 0.0 0.0 0.00 0.00 0.00 57 1013.5
20260903025750 89 6 0.0 2.0 0.00 0.00 0.00 56 1013.2
20260903025245 89 22 0.0 2.0 0.00 0.00 0.00 56 1013.3
20260903024740 90 320 0.0 2.0 0.00 0.00 0.00 55 1013.2
20260903024239 90 75 0.0 0.0 0.00 0.00 0.00 55 1013.0
20260903023735 90 142 0.0 0.0 0.00 0.00 0.00 54 1012.8
20260903023230 90 89 0.0 1.0 0.00 0.00 0.00 56 1012.9
20260903022730 90 62 0.0 0.0 0.00 0.00 0.00 55 1012.7
20260903022229 90 62 0.0 0.0 0.00 0.00 0.00 55 1012.6
20260903021724 90 89 0.0 0.0 0.00 0.00 0.00 55 1012.4
20260903021220 90 89 0.0 0.0 0.00 0.00 0.00 55 1012.3
20260903020719 90 89 0.0 0.0 0.00 0.00 0.00 55 1012.5
20260903020214 90 89 0.0 0.0 0.00 0.00 0.00 54 1012.2
20260903015709 90 89 0.0 0.0 0.00 0.00 0.00 54 1012.1
20260903015205 91 89 0.0 0.0 0.00 0.00 0.00 54 1012.0
20260903014700 91 89 0.0 0.0 0.00 0.00 0.00 53 1012.1
20260903014159 91 89 0.0 0.0 0.00 0.00 0.00 53 1011.9
20260903013654 91 89 0.0 0.0 0.00 0.00 0.00 52 1011.9
20260903013154 91 22 0.0 0.0 0.00 0.00 0.00 52 1011.8
20260903012653 92 22 0.0 0.0 0.00 0.00 0.00 51 1012.0
20260903012152 92 25 0.0 0.0 0.00 0.00 0.00 51 1012.0
20260903011653 92 269 0.0 0.0 0.00 0.00 0.00 51 1011.9
20260903011152 92 293 0.0 1.0 0.00 0.00 0.00 50 1012.0
20260903010648 93 75 0.0 0.0 0.00 0.00 0.00 50 1012.1
20260903010147 93 314 1.0 1.0 0.00 0.00 0.00 49 1012.0
20260903005646 93 322 0.0 0.0 0.00 0.00 0.00 49 1012.0
20260903005142 94 13 0.0 0.0 0.00 0.00 0.00 48 1012.0
20260903004637 94 333 0.0 0.0 0.00 0.00 0.00 47 1012.0
20260903004132 94 316 0.0 1.0 0.00 0.00 0.00 47 1012.1
20260903003627 94 297 0.0 1.0 0.00 0.00 0.00 47 1012.0
20260903003123 94 339 0.0 1.0 0.00 0.00 0.00 47 1011.8
20260903002618 94 299 1.0 3.0 0.00 0.00 0.00 48 1012.0
20260903002112 94 337 2.0 2.0 0.00 0.00 0.00 47 1012.0
20260903001607 95 294 3.0 3.0 0.00 0.00 0.00 46 1012.2
20260903001107 96 243 0.0 2.0 0.00 0.00 0.00 45 1011.9
20260903000603 96 334 0.0 2.0 0.00 0.00 0.00 45 1011.9
20260902235600 96 332 1.0 4.0 0.00 0.00 0.00 45 1011.9
20260902235056 97 329 1.0 1.0 0.00 0.00 0.00 45 1011.9
20260902234550 97 313 3.0 3.0 0.00 0.00 0.00 44 1011.9
20260902234049 98 217 0.0 4.0 0.00 0.00 0.00 43 1012.0
20260902233544 100 322 0.0 0.0 0.00 0.00 0.00 39 1011.9
20260902233038 100 344 0.0 1.0 0.00 0.00 0.00 39 1011.9
20260902232537 99 246 0.0 1.0 0.00 0.00 0.00 40 1011.8
20260902232031 99 116 0.0 2.0 0.00 0.00 0.00 39 1011.7
20260902231527 100 329 1.0 2.0 0.00 0.00 0.00 39 1011.9
20260902231026 100 261 0.0 2.0 0.00 0.00 0.00 39 1011.5
20260902230521 100 322 0.0 1.0 0.00 0.00 0.00 40 1011.7
20260902230020 100 34 0.0 1.0 0.00 0.00 0.00 40 1011.7
20260902225516 100 95 0.0 2.0 0.00 0.00 0.00 39 1011.8
20260902225015 100 142 0.0 5.0 0.00 0.00 0.00 38 1011.8
20260902224514 100 322 0.0 1.0 0.00 0.00 0.00 40 1011.7
20260902224010 100 121 0.0 3.0 0.00 0.00 0.00 39 1011.8
20260902223507 100 15 0.0 2.0 0.00 0.00 0.00 39 1011.9
20260902223005 101 268 1.0 2.0 0.00 0.00 0.00 39 1011.7
20260902222504 101 19 0.0 1.0 0.00 0.00 0.00 40 1011.8
20260902222004 101 72 0.0 4.0 0.00 0.00 0.00 39 1011.9
20260902221503 101 53 2.0 2.0 0.00 0.00 0.00 39 1011.7
20260902220959 101 105 1.0 3.0 0.00 0.00 0.00 39 1012.0
20260902220459 101 147 0.0 2.0 0.00 0.00 0.00 39 1012.1
20260902215954 101 49 2.0 4.0 0.00 0.00 0.00 40 1012.0
20260902215450 101 358 1.0 2.0 0.00 0.00 0.00 41 1012.0
20260902214946 101 345 1.0 2.0 0.00 0.00 0.00 39 1011.9
20260902214445 101 53 0.0 4.0 0.00 0.00 0.00 39 1012.0
20260902213944 101 77 0.0 4.0 0.00 0.00 0.00 38 1012.0
20260902213441 101 80 3.0 4.0 0.00 0.00 0.00 38 1012.1
20260902212939 101 326 0.0 2.0 0.00 0.00 0.00 38 1012.0
20260902212436 102 220 2.0 2.0 0.00 0.00 0.00 38 1012.2
20260902211932 101 276 0.0 1.0 0.00 0.00 0.00 39 1012.1
20260902211427 100 200 0.0 2.0 0.00 0.00 0.00 39 1012.3
20260902210922 100 348 1.0 2.0 0.00 0.00 0.00 40 1012.3
20260902210422 101 44 0.0 2.0 0.00 0.00 0.00 40 1012.1
20260902205920 103 11 0.0 2.0 0.00 0.00 0.00 38 1012.3
20260902205416 105 262 0.0 6.0 0.00 0.00 0.00 36 1012.5
20260902204912 105 338 1.0 3.0 0.00 0.00 0.00 36 1012.6
20260902204411 104 329 2.0 3.0 0.00 0.00 0.00 36 1012.6
20260902203907 104 355 0.0 3.0 0.00 0.00 0.00 37 1012.7
20260902203402 102 82 3.0 3.0 0.00 0.00 0.00 38 1012.8
20260902202901 102 254 0.0 3.0 0.00 0.00 0.00 39 1012.9
20260902202357 102 43 2.0 4.0 0.00 0.00 0.00 39 1012.9
20260902201854 106 199 0.0 2.0 0.00 0.00 0.00 35 1012.9
20260902201354 106 70 0.0 3.0 0.00 0.00 0.00 35 1012.9
20260902200849 107 326 0.0 2.0 0.00 0.00 0.00 34 1013.0
20260902200344 105 348 0.0 2.0 0.00 0.00 0.00 35 1013.1
20260902195839 107 352 0.0 2.0 0.00 0.00 0.00 34 1013.0
20260902195338 107 15 2.0 4.0 0.00 0.00 0.00 35 1013.2
20260902194833 106 31 0.0 2.0 0.00 0.00 0.00 35 1013.2
20260902194333 105 308 0.0 2.0 0.00 0.00 0.00 35 1013.6
20260902193829 104 313 0.0 2.0 0.00 0.00 0.00 35 1013.5
20260902193325 102 246 0.0 2.0 0.00 0.00 0.00 38 1013.5
20260902192823 102 332 2.0 2.0 0.00 0.00 0.00 38 1013.7
20260902192322 102 19 1.0 3.0 0.00 0.00 0.00 39 1013.7
20260902191822 99 275 0.0 1.0 0.00 0.00 0.00 41 1013.7
20260902191317 97 322 0.0 0.0 0.00 0.00 0.00 44 1013.9
20260902190813 97 269 0.0 1.0 0.00 0.00 0.00 44 1014.1
20260902190311 98 309 0.0 1.0 0.00 0.00 0.00 43 1014.2
20260902185808 98 15 0.0 1.0 0.00 0.00 0.00 43 1014.2
20260902185306 100 343 1.0 1.0 0.00 0.00 0.00 42 1014.4
20260902184759 99 72 2.0 2.0 0.00 0.00 0.00 41 1014.2
20260902184254 97 296 0.0 2.0 0.00 0.00 0.00 42 1014.3
20260902183750 97 309 0.0 1.0 0.00 0.00 0.00 44 1014.3
20260902183246 97 284 0.0 2.0 0.00 0.00 0.00 43 1014.6
20260902182742 99 255 0.0 1.0 0.00 0.00 0.00 42 1014.8
20260902182238 101 279 1.0 2.0 0.00 0.00 0.00 40 1014.6
20260902181734 99 345 0.0 2.0 0.00 0.00 0.00 42 1014.9
20260902181234 99 297 0.0 2.0 0.00 0.00 0.00 42 1014.9
20260902180729 102 15 0.0 1.0 0.00 0.00 0.00 40 1015.0
20260902180224 100 60 0.0 3.0 0.00 0.00 0.00 41 1015.2
20260902175719 99 310 0.0 1.0 0.00 0.00 0.00 44 1015.3
20260902175215 98 318 1.0 1.0 0.00 0.00 0.00 44 1015.4
20260902174711 99 314 0.0 2.0 0.00 0.00 0.00 43 1015.4
20260902174206 99 60 0.0 3.0 0.00 0.00 0.00 43 1015.6
20260902173702 99 41 2.0 3.0 0.00 0.00 0.00 43 1015.8
20260902173156 100 217 0.0 2.0 0.00 0.00 0.00 42 1015.7
20260902172651 98 269 0.0 2.0 0.00 0.00 0.00 44 1015.9
20260902172150 99 215 0.0 2.0 0.00 0.00 0.00 44 1016.1
20260902171645 98 302 0.0 2.0 0.00 0.00 0.00 44 1016.0
20260902171141 96 12 0.0 1.0 0.00 0.00 0.00 46 1016.0
20260902170637 96 55 1.0 3.0 0.00 0.00 0.00 47 1016.1
20260902170132 95 223 1.0 2.0 0.00 0.00 0.00 48 1016.0
20260902165627 93 89 0.0 3.0 0.00 0.00 0.00 52 1016.1
20260902165126 93 104 0.0 2.0 0.00 0.00 0.00 51 1016.2
20260902164622 93 50 0.0 1.0 0.00 0.00 0.00 53 1016.3
20260902164121 92 242 0.0 2.0 0.00 0.00 0.00 54 1016.4
20260902163616 92 275 1.0 1.0 0.00 0.00 0.00 54 1016.5
20260902163115 91 309 0.0 1.0 0.00 0.00 0.00 56 1016.4
20260902162614 91 318 0.0 0.0 0.00 0.00 0.00 55 1016.5
20260902162109 90 89 0.0 1.0 0.00 0.00 0.00 55 1016.4
20260902161604 90 293 0.0 1.0 0.00 0.00 0.00 56 1016.6
20260902161100 89 140 0.0 2.0 0.00 0.00 0.00 57 1016.4
20260902160555 89 240 0.0 1.0 0.00 0.00 0.00 57 1016.6
20260902160051 89 190 0.0 2.0 0.00 0.00 0.00 57 1016.5
20260902155544 88 266 0.0 1.0 0.00 0.00 0.00 59 1016.6
20260902155043 88 97 1.0 2.0 0.00 0.00 0.00 59 1016.6
20260902154538 88 89 0.0 4.0 0.00 0.00 0.00 60 1016.6
20260902154032 87 122 0.0 2.0 0.00 0.00 0.00 61 1016.7
20260902153531 87 157 2.0 2.0 0.00 0.00 0.00 61 1016.4
20260902153027 87 63 0.0 2.0 0.00 0.00 0.00 62 1016.7
20260902152523 86 168 0.0 1.0 0.00 0.00 0.00 63 1016.8
20260902152018 86 204 0.0 3.0 0.00 0.00 0.00 64 1016.6
20260902151514 86 310 0.0 2.0 0.00 0.00 0.00 64 1016.7
20260902151013 85 122 2.0 3.0 0.00 0.00 0.00 64 1016.7
20260902150510 85 274 0.0 1.0 0.00 0.00 0.00 66 1016.6
20260902150009 85 87 2.0 4.0 0.00 0.00 0.00 66 1016.7
20260902145504 85 180 0.0 4.0 0.00 0.00 0.00 66 1016.5
20260902144959 84 245 0.0 2.0 0.00 0.00 0.00 67 1016.5
20260902144456 84 155 0.0 1.0 0.00 0.00 0.00 67 1016.5
20260902143955 84 233 0.0 4.0 0.00 0.00 0.00 67 1016.6
20260902143451 84 207 0.0 4.0 0.00 0.00 0.00 67 1016.6
20260902142946 84 180 0.0 3.0 0.00 0.00 0.00 68 1016.6
20260902142442 84 46 0.0 4.0 0.00 0.00 0.00 68 1016.5
20260902141937 84 102 2.0 5.0 0.00 0.00 0.00 69 1016.5
20260902141432 83 125 4.0 5.0 0.00 0.00 0.00 69 1016.6
20260902140932 83 107 3.0 3.0 0.00 0.00 0.00 70 1016.5
20260902140428 82 354 1.0 2.0 0.00 0.00 0.00 71 1016.5
20260902135927 82 113 0.0 2.0 0.00 0.00 0.00 72 1016.5
20260902135423 82 103 0.0 2.0 0.00 0.00 0.00 73 1016.6
20260902134921 81 230 0.0 1.0 0.00 0.00 0.00 74 1016.6
20260902134418 81 113 0.0 2.0 0.00 0.00 0.00 74 1016.4
20260902133913 80 72 0.0 1.0 0.00 0.00 0.00 75 1016.5
20260902133413 80 282 0.0 0.0 0.00 0.00 0.00 76 1016.4
20260902132908 79 44 0.0 0.0 0.00 0.00 0.00 77 1016.4
20260902132403 79 50 0.0 1.0 0.00 0.00 0.00 78 1016.4
20260902131858 78 20 0.0 1.0 0.00 0.00 0.00 78 1016.3
20260902131355 78 67 0.0 1.0 0.00 0.00 0.00 79 1016.3
20260902130854 78 89 0.0 1.0 0.00 0.00 0.00 79 1016.2
20260902130350 77 40 0.0 1.0 0.00 0.00 0.00 80 1016.2
20260902125845 77 43 0.0 1.0 0.00 0.00 0.00 81 1016.0
20260902125341 77 25 0.0 0.0 0.00 0.00 0.00 81 1016.2
20260902124837 77 75 0.0 0.0 0.00 0.00 0.00 81 1016.0
20260902124333 77 354 0.0 0.0 0.00 0.00 0.00 81 1016.1
20260902123833 77 29 0.0 1.0 0.00 0.00 0.00 81 1016.0
20260902123329 77 269 0.0 0.0 0.00 0.00 0.00 81 1016.0
20260902122827 77 22 0.0 1.0 0.00 0.00 0.00 81 1016.0
20260902122324 77 55 0.0 1.0 0.00 0.00 0.00 81 1015.7
20260902121823 77 345 0.0 1.0 0.00 0.00 0.00 80 1015.7
20260902121319 77 60 0.0 1.0 0.00 0.00 0.00 80 1015.8
20260902120814 77 44 0.0 1.0 0.00 0.00 0.00 80 1015.8
20260902120310 77 343 1.0 1.0 0.00 0.00 0.00 80 1015.9
20260902115805 77 37 0.0 0.0 0.00 0.00 0.00 80 1015.7
20260902115301 77 52 0.0 2.0 0.00 0.00 0.00 80 1015.7
20260902114757 78 293 0.0 0.0 0.00 0.00 0.00 80 1015.6
20260902114254 78 326 0.0 1.0 0.00 0.00 0.00 79 1015.5
20260902113753 78 22 0.0 0.0 0.00 0.00 0.00 79 1015.5
20260902113248 78 96 0.0 2.0 0.00 0.00 0.00 80 1015.5
20260902112748 78 44 0.0 1.0 0.00 0.00 0.00 79 1015.5
20260902112245 78 44 0.0 0.0 0.00 0.00 0.00 79 1015.4
20260902111740 78 11 0.0 1.0 0.00 0.00 0.00 79 1015.4
20260902111237 78 322 0.0 0.0 0.00 0.00 0.00 79 1015.6
20260902110732 78 297 0.0 0.0 0.00 0.00 0.00 79 1015.5
20260902110228 78 22 0.0 0.0 0.00 0.00 0.00 78 1015.7
20260902105727 78 339 1.0 1.0 0.00 0.00 0.00 78 1015.5
20260902105222 78 31 0.0 0.0 0.00 0.00 0.00 78 1015.6
20260902104718 78 67 0.0 1.0 0.00 0.00 0.00 77 1015.6
20260902104215 79 50 0.0 0.0 0.00 0.00 0.00 77 1015.5
20260902103714 79 308 0.0 1.0 0.00 0.00 0.00 76 1015.5
20260902103214 79 241 0.0 1.0 0.00 0.00 0.00 77 1015.6
20260902102709 79 38 0.0 0.0 0.00 0.00 0.00 76 1015.6
20260902102207 79 39 0.0 0.0 0.00 0.00 0.00 76 1015.5
20260902101702 79 282 0.0 1.0 0.00 0.00 0.00 75 1015.5
20260902101202 80 347 1.0 2.0 0.00 0.00 0.00 75 1015.6
20260902100656 80 40 0.0 2.0 0.00 0.00 0.00 75 1015.4
20260902100151 80 5 0.0 1.0 0.00 0.00 0.00 75 1015.4
20260902095650 80 315 0.0 2.0 0.00 0.00 0.00 74 1015.5
20260902095149 80 37 0.0 1.0 0.00 0.00 0.00 74 1015.4
20260902094644 80 8 0.0 1.0 0.00 0.00 0.00 74 1015.5
20260902094141 80 309 0.0 1.0 0.00 0.00 0.00 73 1015.5
20260902093640 80 36 0.0 1.0 0.00 0.00 0.00 74 1015.5
20260902093135 80 0 0.0 1.0 0.00 0.00 0.00 73 1015.6
20260902092630 80 50 0.0 0.0 0.00 0.00 0.00 72 1015.6
20260902092125 81 36 1.0 1.0 0.00 0.00 0.00 73 1015.6
20260902091620 81 50 0.0 0.0 0.00 0.00 0.00 73 1015.5
20260902091117 81 71 0.0 0.0 0.00 0.00 0.00 71 1015.6
20260902090612 81 53 0.0 1.0 0.00 0.00 0.00 72 1015.6
20260902090111 80 38 0.0 0.0 0.00 0.00 0.00 73 1015.6
20260902085606 80 352 0.0 0.0 0.00 0.00 0.00 73 1015.6
20260902085101 80 44 0.0 0.0 0.00 0.00 0.00 72 1015.6
20260902084557 80 25 0.0 0.0 0.00 0.00 0.00 72 1015.8
20260902084053 80 25 0.0 0.0 0.00 0.00 0.00 71 1015.8
20260902083548 81 25 0.0 0.0 0.00 0.00 0.00 71 1015.6
20260902083047 81 25 0.0 0.0 0.00 0.00 0.00 71 1015.6
20260902082543 81 345 0.0 0.0 0.00 0.00 0.00 71 1015.7
20260902082039 81 50 0.0 0.0 0.00 0.00 0.00 72 1015.8
20260902081536 81 50 0.0 0.0 0.00 0.00 0.00 73 1015.7
20260902081035 81 22 0.0 1.0 0.00 0.00 0.00 71 1015.8
20260902080531 81 333 0.0 0.0 0.00 0.00 0.00 71 1015.6
20260902080027 81 37 0.0 0.0 0.00 0.00 0.00 71 1015.7
20260902075527 82 37 0.0 0.0 0.00 0.00 0.00 71 1015.8
20260902075023 82 44 0.0 0.0 0.00 0.00 0.00 70 1015.7
20260902074518 82 343 0.0 0.0 0.00 0.00 0.00 71 1015.7
20260902074013 82 333 0.0 0.0 0.00 0.00 0.00 70 1015.7
20260902073509 82 333 0.0 0.0 0.00 0.00 0.00 72 1015.8
20260902073006 82 333 0.0 0.0 0.00 0.00 0.00 71 1015.7
20260902072500 82 50 0.0 0.0 0.00 0.00 0.00 71 1015.7
20260902071956 82 62 0.0 0.0 0.00 0.00 0.00 71 1015.9
20260902071456 82 66 0.0 0.0 0.00 0.00 0.00 71 1016.1
20260902070952 83 19 0.0 1.0 0.00 0.00 0.00 71 1015.9
20260902070448 83 75 0.0 0.0 0.00 0.00 0.00 71 1015.9
20260902065947 83 44 0.0 0.0 0.00 0.00 0.00 70 1016.1
20260902065442 83 37 0.0 0.0 0.00 0.00 0.00 70 1016.1
20260902064937 83 25 0.0 0.0 0.00 0.00 0.00 71 1015.9
20260902064433 83 38 0.0 0.0 0.00 0.00 0.00 71 1015.9
20260902063928 83 50 0.0 0.0 0.00 0.00 0.00 71 1016.0
20260902063428 84 54 0.0 0.0 0.00 0.00 0.00 71 1015.8
20260902062923 84 29 1.0 1.0 0.00 0.00 0.00 70 1016.1
20260902062423 84 44 0.0 1.0 0.00 0.00 0.00 70 1015.9
20260902061923 84 339 0.0 2.0 0.00 0.00 0.00 70 1015.7
20260902061418 84 75 0.0 0.0 0.00 0.00 0.00 69 1015.9
20260902060914 84 89 0.0 0.0 0.00 0.00 0.00 69 1015.9
20260902060410 84 35 0.0 0.0 0.00 0.00 0.00 69 1015.9
20260902055905 84 53 0.0 0.0 0.00 0.00 0.00 68 1015.7
20260902055401 84 53 0.0 0.0 0.00 0.00 0.00 69 1015.9
20260902054857 84 50 0.0 0.0 0.00 0.00 0.00 68 1015.9
20260902054352 85 25 0.0 0.0 0.00 0.00 0.00 68 1015.8
20260902053847 85 37 0.0 0.0 0.00 0.00 0.00 68 1015.8
20260902053342 85 322 0.0 2.0 0.00 0.00 0.00 68 1015.8
20260902052841 85 25 0.0 0.0 0.00 0.00 0.00 68 1015.8
20260902052337 85 37 0.0 0.0 0.00 0.00 0.00 67 1015.7
20260902051832 85 15 0.0 0.0 0.00 0.00 0.00 67 1015.8
20260902051332 85 15 0.0 0.0 0.00 0.00 0.00 67 1015.8
20260902050832 86 212 0.0 0.0 0.00 0.00 0.00 66 1015.7
20260902050331 86 11 2.0 2.0 0.00 0.00 0.00 66 1015.9
20260902045826 86 32 0.0 0.0 0.00 0.00 0.00 65 1015.9
20260902045322 86 60 0.0 1.0 0.00 0.00 0.00 66 1015.7
20260902044818 86 44 0.0 1.0 0.00 0.00 0.00 65 1015.9
20260902044314 86 50 0.0 1.0 0.00 0.00 0.00 65 1016.0
20260902043813 87 22 0.0 2.0 0.00 0.00 0.00 64 1015.9
20260902043309 87 309 0.0 2.0 0.00 0.00 0.00 64 1015.8
20260902042808 87 15 0.0 0.0 0.00 0.00 0.00 64 1015.7
20260902042308 87 32 0.0 2.0 0.00 0.00 0.00 63 1015.9
20260902041759 87 66 0.0 0.0 0.00 0.00 0.00 64 1015.8
20260902041258 87 353 0.0 1.0 0.00 0.00 0.00 63 1015.8